KE9LZ-9 Weather Reports


Display with metric or nautical units.
time (UTC)temp
F
wind
direction
speed
MPH
gust
MPH
rain 1hr
in
rain 24hr
in
rain mn
in
humidity
%
barometer
mb
20260506191004 46 4 5.0 14.0 0.00 0.00 0.00 47 1012.3
20260506190005 46 128 2.0 7.0 0.00 0.00 0.00 47 1012.3
20260506185004 44 321 4.0 14.0 0.00 0.00 0.00 48 1012.3
20260506184004 46 282 5.0 9.0 0.00 0.00 0.00 46 1012.3
20260506183005 45 30 2.0 8.0 0.00 0.00 0.00 48 1012.4
20260506175004 45 332 4.0 8.0 0.00 0.00 0.00 45 1012.5
20260506174004 44 283 3.0 9.0 0.00 0.00 0.00 46 1012.5
20260506172005 44 297 6.0 13.0 0.00 0.00 0.00 48 1012.7
20260506170004 43 341 3.0 12.0 0.00 0.00 0.00 50 1012.9
20260506164004 43 295 5.0 14.0 0.00 0.00 0.00 49 1013.2
20260506163004 43 264 6.0 15.0 0.00 0.00 0.00 49 1013.1
20260506162004 42 283 6.0 14.0 0.00 0.00 0.00 51 1013.2
20260506161004 42 248 5.0 9.0 0.00 0.00 0.00 52 1013.3
20260506160004 43 330 5.0 9.0 0.00 0.00 0.00 53 1013.1
20260506155004 42 228 1.0 7.0 0.00 0.00 0.00 54 1013.2
20260506154003 41 286 5.0 9.0 0.00 0.00 0.00 55 1013.1
20260506153004 41 314 3.0 13.0 0.00 0.00 0.00 55 1013.2
20260506152004 41 357 2.0 7.0 0.00 0.00 0.00 54 1013.1
20260506151004 41 315 6.0 9.0 0.00 0.00 0.00 55 1013.2
20260506150005 41 257 3.0 9.0 0.00 0.00 0.00 55 1013.1
20260506145004 40 37 3.0 6.0 0.00 0.00 0.00 56 1013.1
20260506144004 41 41 2.0 13.0 0.00 0.00 0.00 56 1012.9
20260506143005 40 358 2.0 12.0 0.00 0.00 0.00 57 1013.0
20260506142004 40 269 4.0 9.0 0.00 0.00 0.00 56 1013.1
20260506141003 41 11 2.0 6.0 0.00 0.00 0.00 58 1012.9
20260506140004 40 295 4.0 7.0 0.00 0.00 0.00 58 1012.9
20260506135004 40 0 2.0 8.0 0.00 0.00 0.00 59 1012.8
20260506134004 40 335 2.0 5.0 0.00 0.00 0.00 58 1012.8
20260506133004 39 54 1.0 7.0 0.00 0.00 0.00 60 1012.9
20260506132004 39 310 2.0 7.0 0.00 0.00 0.00 61 1012.9
20260506131004 38 15 2.0 6.0 0.00 0.00 0.00 63 1013.0
20260506130004 37 353 2.0 7.0 0.00 0.00 0.00 64 1013.1
20260506125004 37 3 2.0 6.0 0.00 0.00 0.00 65 1013.0
20260506122004 37 27 2.0 3.0 0.00 0.00 0.00 67 1012.7
20260506121004 36 56 2.0 5.0 0.00 0.00 0.00 69 1012.4
20260506120004 35 339 1.0 2.0 0.00 0.00 0.00 71 1012.4
20260506115003 35 319 1.0 3.0 0.00 0.00 0.00 72 1012.4
20260506114003 34 347 2.0 3.0 0.00 0.00 0.00 73 1012.3
20260506113003 34 333 2.0 3.0 0.00 0.00 0.00 74 1012.4
20260506112004 33 308 1.0 2.0 0.00 0.00 0.00 74 1012.2
20260506111004 33 324 0.0 1.0 0.00 0.00 0.00 77 1011.9
20260506105003 33 313 0.0 2.0 0.00 0.00 0.00 76 1011.9
20260506104003 33 311 0.0 2.0 0.00 0.00 0.00 74 1011.6
20260506103004 33 331 0.0 1.0 0.00 0.00 0.00 76 1011.6
20260506101004 33 44 0.0 1.0 0.00 0.00 0.00 76 1011.7
20260506100004 33 324 0.0 1.0 0.00 0.00 0.00 76 1011.6
20260506095004 33 29 0.0 1.0 0.00 0.00 0.00 77 1011.7
20260506093004 33 290 0.0 1.0 0.00 0.00 0.00 77 1011.7
20260506091004 33 5 0.0 0.0 0.00 0.00 0.00 76 1011.5
20260506090003 33 341 0.0 2.0 0.00 0.00 0.00 75 1011.5
20260506085003 33 43 0.0 1.0 0.00 0.00 0.00 74 1011.1
20260506084003 33 339 0.0 2.0 0.00 0.00 0.00 75 1011.4
20260506083004 33 339 0.0 2.0 0.00 0.00 0.00 73 1011.3
20260506081004 33 309 0.0 1.0 0.00 0.00 0.00 73 1011.2
20260506072004 32 317 0.0 1.0 0.00 0.00 0.00 75 1011.3
20260506071003 33 319 0.0 1.0 0.00 0.00 0.00 74 1011.3
20260506062004 34 330 0.0 1.0 0.00 0.00 0.00 71 1011.3
20260506061003 34 5 0.0 1.0 0.00 0.00 0.00 71 1011.3
20260506051003 34 26 1.0 1.0 0.00 0.00 0.00 69 1011.4
20260506045004 33 355 0.0 1.0 0.00 0.00 0.00 68 1011.1
20260506044004 33 315 0.0 1.0 0.00 0.00 0.00 70 1011.1
20260506043004 33 323 0.0 1.0 0.00 0.00 0.00 69 1011.0
20260506041003 33 351 0.0 1.0 0.00 0.00 0.00 68 1011.1
20260506040003 32 61 0.0 1.0 0.00 0.00 0.00 68 1010.9
20260506034004 30 17 0.0 1.0 0.00 0.00 0.00 72 1010.8
20260506033004 31 1 1.0 2.0 0.00 0.00 0.00 73 1010.7
20260506031003 31 337 1.0 1.0 0.00 0.00 0.00 68 1010.5
20260506030003 32 354 0.0 1.0 0.00 0.00 0.00 66 1010.4
20260506025004 33 326 0.0 1.0 0.00 0.00 0.00 66 1010.4
20260506024003 34 20 1.0 2.0 0.00 0.00 0.00 63 1010.3
20260506023004 34 355 1.0 1.0 0.00 0.00 0.00 62 1010.2
20260506022003 35 313 0.0 1.0 0.00 0.00 0.00 59 1010.1
20260506021004 36 13 1.0 1.0 0.00 0.00 0.00 59 1010.0
20260506015004 39 346 0.0 1.0 0.00 0.00 0.00 53 1009.9
20260506014004 40 22 0.0 1.0 0.00 0.00 0.00 51 1009.8
20260506012003 42 73 1.0 6.0 0.00 0.00 0.00 45 1009.6
20260506011004 43 337 1.0 7.0 0.00 0.00 0.00 44 1009.6
20260506010004 43 332 2.0 10.0 0.00 0.00 0.00 44 1009.6
20260506005004 44 285 3.0 12.0 0.00 0.00 0.00 43 1009.4
20260506004004 44 358 2.0 7.0 0.00 0.00 0.00 43 1009.4
20260506003004 44 300 5.0 10.0 0.00 0.00 0.00 42 1009.5
20260506002004 44 321 5.0 8.0 0.00 0.00 0.00 42 1009.3
20260506001004 45 310 3.0 9.0 0.00 0.00 0.00 42 1009.1
20260506000003 45 337 3.0 12.0 0.00 0.00 0.00 42 1009.3
20260505235004 45 310 6.0 12.0 0.00 0.00 0.00 41 1009.0
20260505234004 45 302 5.0 15.0 0.00 0.00 0.00 41 1008.8
20260505233003 46 327 4.0 10.0 0.00 0.00 0.00 41 1008.6
20260505231004 46 1 3.0 13.0 0.00 0.00 0.00 41 1008.7
20260505230004 47 313 4.0 10.0 0.00 0.00 0.00 41 1008.5
20260505225004 48 40 5.0 14.0 0.00 0.00 0.00 40 1008.3
20260505224004 47 322 5.0 14.0 0.00 0.00 0.00 39 1008.3
20260505223004 48 312 6.0 15.0 0.00 0.00 0.00 39 1008.2
20260505222003 48 311 4.0 8.0 0.00 0.00 0.00 40 1008.2
20260505221004 47 333 6.0 13.0 0.00 0.00 0.00 40 1008.0
20260505215004 48 330 3.0 15.0 0.00 0.00 0.00 39 1007.8
20260505214003 48 299 5.0 17.0 0.00 0.00 0.00 38 1007.8
20260505212004 48 300 7.0 16.0 0.00 0.00 0.00 37 1007.9
20260505211003 48 277 6.0 18.0 0.00 0.00 0.00 37 1007.6
20260505210004 48 316 6.0 14.0 0.00 0.00 0.00 38 1007.6
20260505205004 49 284 5.0 20.0 0.00 0.00 0.00 37 1007.5
20260505204004 49 274 8.0 18.0 0.00 0.00 0.00 36 1007.5
20260505203004 48 342 5.0 12.0 0.00 0.00 0.00 37 1007.5
20260505202004 48 287 4.0 16.0 0.00 0.00 0.00 37 1007.4
20260505201004 48 278 5.0 16.0 0.00 0.00 0.00 37 1007.4
20260505200003 49 257 7.0 20.0 0.00 0.00 0.00 37 1007.3
20260505195004 49 299 4.0 14.0 0.00 0.00 0.00 37 1007.2
20260505193003 49 280 8.0 16.0 0.00 0.00 0.00 37 1006.9
20260505192004 50 284 2.0 17.0 0.00 0.00 0.00 38 1006.8